Regional Weather Roundup
Issued by NWS

Home | Current Version | Previous Version | Graphics & Text | Print | Product List | Glossary On
Versions: 1 2 3 4 5 6 7 8 9 10 11 12 13 14 15 16 17 18 19 20 21 22 23 24 25 26 27 28 29 30 31 32 33 34 35 36 37 38 39 40 41 42 43 44 45 46 47 48 49 50
000
ASUS43 KIND 230759
RWRIN

WEATHER ROUNDUP FOR INDIANA
NATIONAL WEATHER SERVICE INDIANAPOLIS IN
400 AM EDT FRI JUN 23 2017

NOTE: "FAIR" INDICATES FEW OR NO CLOUDS BELOW 12,000 FEET WITH NO
SIGNIFICANT WEATHER AND/OR OBSTRUCTIONS TO VISIBILITY.

* - STATION DOES NOT REPORT WEATHER SUCH AS PRECIPITATION OR FOG.

+ - STATION NOT QUALITY CONTROLLED BY THE NATIONAL WEATHER SERVICE.
    USE DATA WITH CAUTION...ESPECIALLY DEWPOINT AND RELATIVE
    HUMIDITY OBSERVATIONS.

INZ001>003-010>013-019-020-230900-
NORTHWEST INDIANA

CITY           SKY/WX    TMP DP  RH WIND       PRES   REMARKS
GARY /AIRPORT/ CLOUDY    76  71  84 SW8       29.67S
KNOX *+        CLOUDY    72  72 100 SW10      29.68F
MICHIGAN CITY+ CLOUDY    72  72 100 SW9G16    29.68S
MONTICELLO +   LGT RAIN  72  70  95 S8        29.69F
RENSSELAER +   CLOUDY    73  70  88 SW12      29.68F

$$

LMZ046-743>745-230900-
SOUTHERN LAKE MICHIGAN

STATION/POSITION TIME  TEMP    WIND        PRES    WAVE
                       AIR SEA DIR/SP/G            HT
                 (UTC) (F)     (DEG/KT/KT) (MB)    (FT)
BURNS HARBOR     0740   74     220/ 13/ 17 1005.1F
MICHIGAN CITY    0730   73     190/ 15/ 17   N/A
5NW MICH CITY    0750   72 68  220/ 10/ 14   N/A     2

$$

INZ004-005-014>016-021>024-230900-
NORTH CENTRAL INDIANA

CITY           SKY/WX    TMP DP  RH WIND       PRES   REMARKS
GOSHEN         LGT RAIN  71  68  90 S8        29.69F FOG
SOUTH BEND     CLOUDY    71  70  96 S13       29.67F

$$

INZ006>009-017-018-025>027-230900-
NORTHEAST INDIANA

CITY           SKY/WX    TMP DP  RH WIND       PRES   REMARKS
FORT WAYNE     CLOUDY    72  69  90 S10       29.71F
KENDALLVILLE + RAIN      70  69  99 SW6       29.72F

$$

INZ028-029-035-036-043>045-051>053-230900-
WEST CENTRAL INDIANA

CITY           SKY/WX    TMP DP  RH WIND       PRES   REMARKS
CRAWFORDSVL +  CLOUDY    71  71 100 S9        29.73F FOG
LAFAYETTE      TSTM      72  72 100 VRB7      29.70F VSB 1/2
TERRE HAUTE    CLOUDY    76  72  87 S10       29.74S

$$

INZ030>032-037>040-046>048-054>057-064-065-230900-
CENTRAL INDIANA

CITY           SKY/WX    TMP DP  RH WIND       PRES   REMARKS
GREENWOOD *+   CLOUDY    74  71  88 SW9       29.77F
INDIANAPOLIS   CLOUDY    74  71  91 S14       29.74F
-EAGLE CREEK   CLOUDY    74  71  91 S12       29.74S
KOKOMO +       CLOUDY    72  71  97 SW13      29.73F FOG
MT COMFORT *+  CLOUDY    72  70  94 SW7       29.77F
SHELBYVILLE    CLOUDY    75  70  84 S9        29.76F

$$

INZ033-034-041-042-049-050-058-059-230900-
EAST CENTRAL INDIANA

CITY           SKY/WX    TMP DP  RH WIND       PRES   REMARKS
MUNCIE         CLOUDY    73  70  90 SW9       29.74F
RICHMOND +     CLOUDY    70  70 100 S8        29.79F

$$

INZ060-061-067>069-081>083-085>088-230900-
SOUTHWEST INDIANA

CITY           SKY/WX    TMP DP  RH WIND       PRES   REMARKS
EVANSVILLE     LGT RAIN  76  72  87 S8        29.77S
HUNTINGBURG *+ LGT RAIN  75  32  20 S12       29.78F

$$

INZ062-063-066-070>080-084-089>092-230900-
SOUTH CENTRAL AND SOUTHEAST INDIANA

CITY           SKY/WX    TMP DP  RH WIND       PRES   REMARKS
BLOOMINGTON    CLOUDY    76  71  85 S12       29.76F
MADISON *+     CLOUDY    73  72  94 S7        29.82F
SEYMOUR +      CLOUDY    75  73  94 S8        29.78F

$$




USA.gov is the U.S. government's official web portal to all federal, state and local government web resources and services.